H1 CPF 2 NER 2025 10 31 9 304 01 glonass146 H2 2216101 9146 54377 2025 10 31 0 0 0 2025 11 3 23 45 0 900 1 1 0 0 0 1 H9 10 0 60979 0.00000 0 23559974.503 -9423854.031 2409450.525 10 0 60979 900.00000 0 23596760.346 -9601063.509 -806664.061 10 0 60979 1800.00000 0 23262539.120 -9612825.341 -4007069.573 10 0 60979 2700.00000 0 22587200.425 -9412146.863 -7129439.369 10 0 60979 3600.00000 0 21611504.599 -8959918.516 -10112968.021 10 0 60979 4500.00000 0 20385298.849 -8226818.827 -12899566.079 10 0 60979 5400.00000 0 18965369.229 -7194810.175 -15435000.049 10 0 60979 6300.00000 0 17413020.133 -5858160.776 -17669954.448 10 0 60979 7200.00000 0 15791484.421 -4223948.707 -19560994.583 10 0 60979 8100.00000 0 14163274.130 -2312025.918 -21071411.133 10 0 60979 9000.00000 0 12587583.800 -154443.193 -22171930.233 10 0 60979 9900.00000 0 11117855.753 2205640.140 -22841275.744 10 0 60979 10800.00000 0 9799609.277 4715516.310 -23066573.569 10 0 60979 11700.00000 0 8668624.014 7314894.008 -22843591.053 10 0 60979 12600.00000 0 7749552.613 9938186.250 -22176807.829 10 0 60979 13500.00000 0 7055019.267 12517026.167 -21079317.627 10 0 60979 14400.00000 0 6585240.253 14982906.409 -19572563.796 10 0 60979 15300.00000 0 6328180.580 17269832.883 -17685914.252 10 0 60979 16200.00000 0 6260238.448 19316883.215 -15456084.592 10 0 60979 17100.00000 0 6347427.165 21070564.357 -12926420.755 10 0 60979 18000.00000 0 6547003.538 22486872.223 -10146055.294 10 0 60979 18900.00000 0 6809473.139 23532968.688 -7168953.571 10 0 60979 19800.00000 0 7080887.291 24188407.181 -4052868.253 10 0 60979 20700.00000 0 7305334.492 24445856.880 -858222.255 10 0 60979 21600.00000 0 7427521.035 24311296.326 2353058.447 10 0 60979 22500.00000 0 7395331.892 23803669.340 5518739.770 10 0 60979 23400.00000 0 7162263.904 22954018.359 8577479.337 10 0 60979 24300.00000 0 6689628.665 21804132.013 11470008.333 10 0 60979 25200.00000 0 5948432.174 20404763.771 14140272.928 10 0 60979 26100.00000 0 4920851.771 18813496.196 16536513.702 10 0 60979 27000.00000 0 3601247.646 17092339.872 18612262.750 10 0 60979 27900.00000 0 1996665.470 15305166.882 20327239.806 10 0 60979 28800.00000 0 126807.727 13515085.451 21648130.601 10 0 60979 29700.00000 0 -1976526.707 11781864.660 22549232.856 10 0 60979 30600.00000 0 -4270513.299 10159515.999 23012957.743 10 0 60979 31500.00000 0 -6702840.337 8694132.070 23030177.099 10 0 60979 32400.00000 0 -9213653.175 7422072.139 22600409.457 10 0 60979 33300.00000 0 -11737825.366 6368570.006 21731840.715 10 0 60979 34200.00000 0 -14207463.894 5546822.255 20441178.160 10 0 60979 35100.00000 0 -16554545.654 4957595.143 18753339.605 10 0 60979 36000.00000 0 -18713576.347 4589366.800 16700982.423 10 0 60979 36900.00000 0 -20624161.406 4418999.066 14323880.356 10 0 60979 37800.00000 0 -22233381.630 4412910.945 11668159.113 10 0 60979 38700.00000 0 -23497873.852 4528704.360 8785404.690 10 0 60979 39600.00000 0 -24385528.824 4717173.434 5731661.277 10 0 60979 40500.00000 0 -24876734.283 4924611.938 2566338.149 10 0 60979 41400.00000 0 -24965110.213 5095320.445 -648952.849 10 0 60979 42300.00000 0 -24657704.744 5174205.843 -3851605.776 10 0 60979 43200.00000 0 -23974642.081 5109361.645 -6979250.432 10 0 60979 44100.00000 0 -22948237.345 4854518.107 -9970978.327 10 0 60979 45000.00000 0 -21621615.971 4371256.699 -12768539.544 10 0 60979 45900.00000 0 -20046896.566 3630893.562 -15317485.978 10 0 60979 46800.00000 0 -18283014.652 2615950.842 -17568237.710 10 0 60979 47700.00000 0 -16393279.893 1321152.584 -19477051.112 10 0 60979 48600.00000 0 -14442770.430 -246097.733 -21006869.579 10 0 60979 49500.00000 0 -12495674.429 -2065778.777 -22128040.520 10 0 60979 50400.00000 0 -10612690.719 -4105849.876 -22818885.102 10 0 60979 51300.00000 0 -8848597.346 -6323361.617 -23066110.493 10 0 60979 52200.00000 0 -7250089.248 -8666032.236 -22865057.463 10 0 60979 53100.00000 0 -5853974.508 -11074224.017 -22219779.538 10 0 60979 54000.00000 0 -4685803.185 -13483237.422 -21142953.089 10 0 60979 54900.00000 0 -3758984.323 -15825827.611 -19655620.909 10 0 60979 55800.00000 0 -3074426.154 -18034838.830 -17786774.891 10 0 60979 56700.00000 0 -2620712.567 -20045847.529 -15572786.355 10 0 60979 57600.00000 0 -2374806.526 -21799704.773 -13056695.306 10 0 60979 58500.00000 0 -2303249.175 -23244872.731 -10287372.544 10 0 60979 59400.00000 0 -2363802.776 -24339458.748 -7318570.831 10 0 60979 60300.00000 0 -2507467.212 -25052863.018 -4207883.406 10 0 60979 61200.00000 0 -2680784.316 -25366971.957 -1015629.900 10 0 60979 62100.00000 0 -2828332.366 -25276848.283 2196308.949 10 0 60979 63000.00000 0 -2895305.303 -24790889.710 5365685.477 10 0 60979 63900.00000 0 -2830067.769 -23930450.187 8431085.262 10 0 60979 64800.00000 0 -2586578.184 -22728939.948 11333110.412 10 0 60979 65700.00000 0 -2126577.679 -21230442.148 14015523.515 10 0 60979 66600.00000 0 -1421452.479 -19487903.837 16426330.569 10 0 60979 67500.00000 0 -453690.980 -17560976.533 18518782.568 10 0 60979 68400.00000 0 782126.460 -15513595.966 20252276.937 10 0 60979 69300.00000 0 2278847.590 -13411401.285 21593141.994 10 0 60979 70200.00000 0 4016799.760 -11319100.450 22515289.692 10 0 60979 71100.00000 0 5964372.437 -9297890.740 23000724.395 10 0 60979 72000.00000 0 8079108.391 -7403040.995 23039897.819 10 0 60979 72900.00000 0 10309260.124 -5681735.592 22631903.086 10 0 60979 73800.00000 0 12595748.753 -4171269.440 21784503.560 10 0 60979 74700.00000 0 14874445.573 -2897668.936 20513995.035 10 0 60979 75600.00000 0 17078682.813 -1874796.270 18844902.900 10 0 60979 76500.00000 0 19141890.058 -1103974.528 16809518.849 10 0 60979 77400.00000 0 21000246.934 -574149.389 14447284.948 10 0 60979 78300.00000 0 22595241.405 -262580.704 11804035.834 10 0 60979 79200.00000 0 23876026.308 -136034.839 8931112.883 10 0 60979 80100.00000 0 24801474.665 -152427.390 5884367.077 10 0 60979 81000.00000 0 25341846.596 -262846.403 2723069.836 10 0 60979 81900.00000 0 25479996.762 -413869.816 -491246.651 10 0 60979 82800.00000 0 25212070.565 -550077.913 -3695996.237 10 0 60979 83700.00000 0 24547659.085 -616653.008 -6828768.188 10 0 60979 84600.00000 0 23509405.786 -561954.600 -9828553.940 10 0 60979 85500.00000 0 22132081.551 -339959.228 -12636945.954 10 0 60980 0.00000 0 20461167.425 87539.854 -15199283.914 10 0 60980 900.00000 0 18551004.434 749068.082 -17465726.276 10 0 60980 1800.00000 0 16462591.300 1662019.446 -19392222.270 10 0 60980 2700.00000 0 14261120.439 2831683.804 -20941369.729 10 0 60980 3600.00000 0 12013358.405 4250792.782 -22083138.733 10 0 60980 4500.00000 0 9784980.156 5899603.988 -22795448.831 10 0 60980 5400.00000 0 7637968.863 7746520.197 -23064589.173 10 0 60980 6300.00000 0 5628189.513 9749217.684 -22885474.296 10 0 60980 7200.00000 0 3803236.868 11856236.466 -22261731.554 10 0 60980 8100.00000 0 2200646.279 14008966.074 -21205619.468 10 0 60980 9000.00000 0 846540.370 16143944.030 -19737779.352 10 0 60980 9900.00000 0 -245233.780 18195371.320 -17886825.721 10 0 60980 10800.00000 0 -1073443.045 20097740.251 -15688783.856 10 0 60980 11700.00000 0 -1649270.185 21788465.536 -13186385.680 10 0 60980 12600.00000 0 -1995589.605 23210409.346 -10428237.749 10 0 60980 13500.00000 0 -2145749.142 24314195.584 -7467877.444 10 0 60980 14400.00000 0 -2141910.558 25060217.361 -4362735.559 10 0 60980 15300.00000 0 -2033019.731 25420254.495 -1173025.272 10 0 60980 16200.00000 0 -1872492.857 25378634.023 2039421.176 10 0 60980 17100.00000 0 -1715716.694 24932885.728 5212345.792 10 0 60980 18000.00000 0 -1617468.525 24093865.696 8284265.265 10 0 60980 18900.00000 0 -1629364.722 22885342.936 11195655.624 10 0 60980 19800.00000 0 -1797445.503 21343066.382 13890098.643 10 0 60980 20700.00000 0 -2159997.693 19513351.043 16315368.250 10 0 60980 21600.00000 0 -2745707.354 17451241.897 18424436.534 10 0 60980 22500.00000 0 -3572220.399 15218331.416 20176380.507 10 0 60980 23400.00000 0 -4645172.381 12880320.884 21537172.615 10 0 60980 24300.00000 0 -5957729.278 10504426.067 22480340.235 10 0 60980 25200.00000 0 -7490659.914 8156734.142 22987481.711 10 0 60980 26100.00000 0 -9212938.761 5899620.851 23048628.996 10 0 60980 27000.00000 0 -11082855.834 3789334.381 22662449.688 10 0 60980 27900.00000 0 -13049589.377 1873845.690 21836283.995 10 0 60980 28800.00000 0 -15055177.580 191054.251 20586015.066 10 0 60980 29700.00000 0 -17036808.727 -1232576.407 18935774.162 10 0 60980 30600.00000 0 -18929335.478 -2382896.610 16917485.096 10 0 60980 31500.00000 0 -20667909.032 -3258425.222 14570255.572 10 0 60980 32400.00000 0 -22190623.323 -3870166.288 11939626.080 10 0 60980 33300.00000 0 -23441058.304 -4240895.384 9076690.010 10 0 60980 34200.00000 0 -24370614.985 -4403945.896 6037101.578 10 0 60980 35100.00000 0 -24940543.178 -4401546.835 2879990.707 10 0 60980 36000.00000 0 -25123575.490 -4282783.099 -333193.699 10 0 60980 36900.00000 0 -24905097.576 -4101265.436 -3539888.821 10 0 60980 37800.00000 0 -24283804.251 -3912610.077 -6677646.781 10 0 60980 38700.00000 0 -23271813.019 -3771836.280 -9685362.128 10 0 60980 39600.00000 0 -21894229.727 -3730793.681 -12504472.639 10 0 60980 40500.00000 0 -20188184.540 -3835730.023 -15080108.852 10 0 60980 41400.00000 0 -18201379.029 -4125103.719 -17362168.923 10 0 60980 42300.00000 0 -15990205.938 -4627735.028 -19306297.202 10 0 60980 43200.00000 0 -13617521.174 -5361374.903 -20874747.196 10 0 60980 44100.00000 0 -11150162.003 -6331752.585 -22037112.275 10 0 60980 45000.00000 0 -8656315.774 -7532142.402 -22770910.338 10 0 60980 45900.00000 0 -6202849.300 -8943468.170 -23062011.848 10 0 60980 46800.00000 0 -3852710.136 -10534940.785 -22904903.832 10 0 60980 47700.00000 0 -1662507.505 -12265202.169 -22302785.673 10 0 60980 48600.00000 0 319627.392 -14083927.549 -21267495.799 10 0 60980 49500.00000 0 2055814.031 -15933818.969 -19819271.466 10 0 60980 50400.00000 0 3519756.039 -17752906.685 -17986346.988 10 0 60980 51300.00000 0 4697581.961 -19477062.396 -15804398.616 10 0 60980 52200.00000 0 5588160.321 -21042619.532 -13315847.133 10 0 60980 53100.00000 0 6202877.973 -22388991.391 -10569031.785 10 0 60980 54000.00000 0 6564892.983 -23461178.140 -7617271.568 10 0 60980 54900.00000 0 6707895.205 -24212058.263 -4517831.941 10 0 60980 55800.00000 0 6674428.044 -24604369.067 -1330816.896 10 0 60980 56700.00000 0 6513843.143 -24612293.811 1881992.354 10 0 60980 57600.00000 0 6279974.877 -24222589.369 5058329.808 10 0 60980 58500.00000 0 6028633.115 -23435207.461 8136645.352 10 0 60980 59400.00000 0 5815020.124 -22263383.536 11057290.783 10 0 60980 60300.00000 0 5691180.521 -20733189.428 13763668.650 10 0 60980 61200.00000 0 5703591.690 -18882568.152 16203322.138 10 0 60980 62100.00000 0 5890996.110 -16759890.518 18328945.495 10 0 60980 63000.00000 0 6282566.953 -14422092.942 20099296.073 10 0 60980 63900.00000 0 6896484.418 -11932473.051 21479990.919 10 0 60980 64800.00000 0 7738983.281 -9358233.662 22444172.996 10 0 60980 65700.00000 0 8803912.625 -6767876.027 22973034.502 10 0 60980 66600.00000 0 10072827.573 -4228549.498 23056187.232 10 0 60980 67500.00000 0 11515610.811 -1803466.584 22691872.616 10 0 60980 68400.00000 0 13091599.726 450510.194 21887006.847 10 0 60980 69300.00000 0 14751173.832 2485010.022 20657059.393 10 0 60980 70200.00000 0 16437737.818 4261935.554 19025766.182 10 0 60980 71100.00000 0 18090018.694 5754810.759 17024681.786 10 0 60980 72000.00000 0 19644581.887 6949638.733 14692578.032 10 0 60980 72900.00000 0 21038461.358 7845233.663 12074699.574 10 0 60980 73800.00000 0 22211793.451 8453013.071 9221889.934 10 0 60980 74700.00000 0 23110343.296 8796259.206 6189604.473 10 0 60980 75600.00000 0 23687816.611 8908881.031 3036829.332 10 0 60980 76500.00000 0 23907858.353 8833729.623 -175072.346 10 0 60980 77400.00000 0 23745652.641 8620539.022 -3383563.668 10 0 60980 78300.00000 0 23189055.165 8323580.851 -6526162.277 10 0 60980 79200.00000 0 22239209.152 7999133.355 -9541668.462 10 0 60980 80100.00000 0 20910618.057 7702873.631 -12371367.842 10 0 60980 81000.00000 0 19230671.386 7487305.023 -14960183.920 10 0 60980 81900.00000 0 17238643.405 7399330.075 -17257757.114 10 0 60980 82800.00000 0 14984206.976 7478072.946 -19219428.503 10 0 60980 83700.00000 0 12525525.243 7753044.285 -20807108.861 10 0 60980 84600.00000 0 9927001.522 8242726.662 -21990016.183 10 0 60980 85500.00000 0 7256781.941 8953640.477 -22745267.797 10 0 60981 0.00000 0 4584115.538 9879929.605 -23058316.268 10 0 60981 900.00000 0 1976680.424 11003484.564 -22923221.641 10 0 60981 1800.00000 0 -502009.520 12294596.398 -22342755.387 10 0 60981 2700.00000 0 -2795015.001 13713115.175 -21328335.529 10 0 60981 3600.00000 0 -4854096.170 15210063.010 -19899794.513 10 0 60981 4500.00000 0 -6641466.482 16729634.292 -18084985.234 10 0 60981 5400.00000 0 -8131104.203 18211499.149 -15919233.283 10 0 60981 6300.00000 0 -9309568.931 19593313.749 -13444646.271 10 0 60981 7200.00000 0 -10176291.126 20813332.455 -10709293.781 10 0 60981 8100.00000 0 -10743324.656 21813012.654 -7766273.802 10 0 60981 9000.00000 0 -11034574.598 22539503.467 -4672683.652 10 0 60981 9900.00000 0 -11084534.347 22947914.331 -1488515.207 10 0 60981 10800.00000 0 -10936586.424 23003268.691 1724504.342 10 0 60981 11700.00000 0 -10640939.465 22682061.128 4904103.975 10 0 60981 12600.00000 0 -10252288.846 21973352.772 7988669.714 10 0 60981 13500.00000 0 -9827299.858 20879359.055 10918431.964 10 0 60981 14400.00000 0 -9422019.505 19415504.928 13636616.749 10 0 60981 15300.00000 0 -9089325.876 17609944.759 16090539.030 10 0 60981 16200.00000 0 -8876522.338 15502566.216 18232617.516 10 0 60981 17100.00000 0 -8823177.623 13143518.718 20021291.970 10 0 60981 18000.00000 0 -8959302.697 10591326.603 21421825.827 10 0 60981 18900.00000 0 -9303941.232 7910664.212 22406979.117 10 0 60981 19800.00000 0 -9864233.421 5169883.918 22957539.030 10 0 60981 20700.00000 0 -10634993.308 2438398.434 23062697.944 10 0 60981 21600.00000 0 -11598818.548 -215975.305 22720271.431 10 0 60981 22500.00000 0 -12726729.471 -2729601.573 21936751.502 10 0 60981 23400.00000 0 -13979312.264 -5045434.144 20727193.262 10 0 60981 24300.00000 0 -15308319.969 -7115148.034 19114936.100 10 0 60981 25200.00000 0 -16658665.637 -8900906.424 17131163.616 10 0 60981 26100.00000 0 -17970725.155 -10376689.264 14814309.534 10 0 60981 27000.00000 0 -19182853.792 -11529128.143 12209319.997 10 0 60981 27900.00000 0 -20234010.903 -12357812.474 9366785.620 10 0 60981 28800.00000 0 -21066382.051 -12875054.168 6341959.578 10 0 60981 29700.00000 0 -21627887.334 -13105120.877 3193680.701 10 0 60981 30600.00000 0 -21874468.998 -13082970.553 -16777.262 10 0 60981 31500.00000 0 -21772060.406 -12852541.407 -3226907.026 10 0 60981 32400.00000 0 -21298151.784 -12464670.550 -6374195.388 10 0 60981 33300.00000 0 -20442885.241 -11974730.611 -9397351.932 10 0 60981 34200.00000 0 -19209631.614 -11440085.804 -12237513.490 10 0 60981 35100.00000 0 -17615023.950 -10917476.623 -14839399.678 10 0 60981 36000.00000 0 -15688445.626 -10460445.264 -17152395.981 10 0 60981 36900.00000 0 -13470994.389 -10116911.914 -19131542.570 10 0 60981 37800.00000 0 -11013965.863 -9927005.278 -20738409.305 10 0 60981 38700.00000 0 -8376920.237 -9921239.515 -21941840.003 10 0 60981 39600.00000 0 -5625413.280 -10119114.709 -22718551.915 10 0 60981 40500.00000 0 -2828486.554 -10528199.679 -23053579.517 10 0 60981 41400.00000 0 -56021.449 -11143735.368 -22940554.889 10 0 60981 42300.00000 0 2623933.123 -11948774.905 -22381820.194 10 0 60981 43200.00000 0 5147748.817 -12914853.816 -21388371.044 10 0 60981 44100.00000 0 7458615.158 -14003161.628 -19979632.637 10 0 60981 45000.00000 0 9508647.656 -15166165.161 -18183073.688 10 0 60981 45900.00000 0 11260620.679 -16349615.011 -16033666.093 10 0 60981 46800.00000 0 12689254.799 -17494850.807 -13573201.071 10 0 60981 47700.00000 0 13782006.856 -18541308.445 -10849475.174 10 0 60981 48600.00000 0 14539331.793 -19429124.115 -7915361.946 10 0 60981 49500.00000 0 14974407.199 -20101726.021 -4827787.109 10 0 60981 50400.00000 0 15112333.838 -20508305.116 -1646627.030 10 0 60981 51300.00000 0 14988847.164 -20606061.393 1566448.368 10 0 60981 52200.00000 0 14648595.120 -20362131.504 4749166.072 10 0 60981 53100.00000 0 14143055.407 -19755116.884 7839850.966 10 0 60981 54000.00000 0 13528180.381 -18776148.133 10778614.419 10 0 60981 54900.00000 0 12861868.819 -17429440.695 13508507.891 10 0 60981 55800.00000 0 12201370.915 -15732318.016 15976619.641 10 0 60981 56700.00000 0 11600735.461 -13714700.356 18135093.926 10 0 60981 57600.00000 0 11108406.259 -11418079.503 19942053.583 10 0 60981 58500.00000 0 10765068.551 -8894020.821 21362408.688 10 0 60981 59400.00000 0 10601835.807 -6202253.500 22368536.214 10 0 60981 60300.00000 0 10638853.095 -3408426.782 22940817.877 10 0 60981 61200.00000 0 10884376.046 -581623.785 23068025.872 10 0 60981 62100.00000 0 11334364.763 2208265.452 22747548.881 10 0 60981 63000.00000 0 11972610.696 4893204.068 21985453.485 10 0 60981 63900.00000 0 12771392.391 7409592.294 20796378.992 10 0 60981 64800.00000 0 13692633.938 9700668.740 19203266.678 10 0 60981 65700.00000 0 14689518.773 11718629.718 17236927.453 10 0 60981 66600.00000 0 15708492.155 13426378.578 14935455.102 10 0 60981 67500.00000 0 16691568.906 14798832.092 12343495.297 10 0 60981 68400.00000 0 17578849.643 15823729.190 9511383.640 10 0 60981 69300.00000 0 18311139.326 16501908.008 6494168.890 10 0 60981 70200.00000 0 18832557.073 16847039.629 3350540.193 10 0 60981 71100.00000 0 19093026.020 16884829.896 141679.431 10 0 60981 72000.00000 0 19050536.665 16651723.429 -3069938.246 10 0 60981 72900.00000 0 18673086.538 16193165.319 -6221771.312 10 0 60981 73800.00000 0 17940212.641 15561495.026 -9252441.080 10 0 60981 74700.00000 0 16844050.502 14813562.836 -12102937.887 10 0 60981 75600.00000 0 15389873.923 14008171.079 -14717779.543 10 0 60981 76500.00000 0 13596091.744 13203449.696 -17046098.449 10 0 60981 77400.00000 0 11493701.193 12454278.332 -19042635.481 10 0 60981 78300.00000 0 9125220.480 11809864.773 -20668620.957 10 0 60981 79200.00000 0 6543145.289 11311582.522 -21892525.665 10 0 60981 80100.00000 0 3807993.873 10991158.866 -22690667.713 10 0 60981 81000.00000 0 986022.428 10869289.543 -23047664.173 10 0 60981 81900.00000 0 -1853294.014 10954737.746 -22956719.612 10 0 60981 82800.00000 0 -4639910.478 11243954.552 -22419746.903 10 0 60981 83700.00000 0 -7305881.033 11721235.764 -21447318.915 10 0 60981 84600.00000 0 -9787937.722 12359407.629 -20058452.831 10 0 60981 85500.00000 0 -12029873.277 13121011.675 -18280231.976 10 0 60982 0.00000 0 -13984629.785 13959938.078 -16147273.136 10 0 60982 900.00000 0 -15616008.977 14823438.834 -13701048.766 10 0 60982 1800.00000 0 -16899932.089 15654434.594 -10989080.302 10 0 60982 2700.00000 0 -17825202.042 16394019.541 -8064014.378 10 0 60982 3600.00000 0 -18393735.231 16984057.836 -4982602.530 10 0 60982 4500.00000 0 -18620255.982 17369762.939 -1804602.958 10 0 60982 5400.00000 0 -18531467.796 17502151.373 1408374.371 10 0 60982 6300.00000 0 -18164737.365 17340267.820 4594057.127 10 0 60982 7200.00000 0 -17566347.512 16853088.033 7690711.717 10 0 60982 8100.00000 0 -16789393.104 16021019.457 10638333.095 10 0 60982 9000.00000 0 -15891408.599 14836936.244 13379800.702 10 0 60982 9900.00000 0 -14931826.996 13306704.656 15861978.547 10 0 60982 10800.00000 0 -13969376.696 11449176.024 18036738.755 10 0 60982 11700.00000 0 -13059525.283 9295646.382 19861889.354 10 0 60982 12600.00000 0 -12252077.082 6888803.924 21301988.958 10 0 60982 13500.00000 0 -11589024.935 4281206.538 22329033.096 10 0 60982 14400.00000 0 -11102746.049 1533350.961 22922999.298 10 0 60982 15300.00000 0 -10814617.513 -1288587.980 23072240.507 10 0 60982 16200.00000 0 -10734109.771 -4115255.918 22773719.056 10 0 60982 17100.00000 0 -10858396.578 -6876753.224 22033076.207 10 0 60982 18000.00000 0 -11172498.550 -9505296.947 20864535.141 10 0 60982 18900.00000 0 -11649955.253 -11937800.921 19290638.218 10 0 60982 19800.00000 0 -12253998.599 -14118267.453 17341822.397 10 0 60982 20700.00000 0 -12939179.193 -15999891.322 15055839.800 10 0 60982 21600.00000 0 -13653377.893 -17546788.406 12477033.494 10 0 60982 22500.00000 0 -14340118.274 -18735276.508 9655481.560 10 0 60982 23400.00000 0 -14941082.417 -19554654.472 6646025.522 10 0 60982 24300.00000 0 -15398723.319 -20007446.678 3507201.781 10 0 60982 25200.00000 0 -15658862.629 -20109102.534 300097.105 10 0 60982 26100.00000 0 -15673162.539 -19887163.781 -2912848.865 10 0 60982 27000.00000 0 -15401365.759 -19379935.247 -6069069.738 10 0 60982 27900.00000 0 -14813207.182 -18634715.929 -9107102.035 10 0 60982 28800.00000 0 -13889914.808 -17705666.235 -11967793.043 10 0 60982 29700.00000 0 -12625235.085 -16651402.754 -14595462.099 10 0 60982 30600.00000 0 -11025938.223 -15532423.468 -16938991.641 10 0 60982 31500.00000 0 -9111781.302 -14408473.376 -18952826.044 10 0 60982 32400.00000 0 -6914930.167 -13335962.640 -20597858.454 10 0 60982 33300.00000 0 -4478864.011 -12365546.778 -21842188.460 10 0 60982 34200.00000 0 -1856808.405 -11539971.005 -22661736.259 10 0 60982 35100.00000 0 890237.791 -10892269.254 -23040702.097 10 0 60982 36000.00000 0 3695799.415 -10444392.930 -22971862.988 10 0 60982 36900.00000 0 6490450.349 -10206326.069 -22456701.874 10 0 60982 37800.00000 0 9204462.513 -10175722.865 -21505367.703 10 0 60982 38700.00000 0 11770468.963 -10338081.456 -20136468.001 10 0 60982 39600.00000 0 14126031.209 -10667445.403 -18376698.635 10 0 60982 40500.00000 0 16216005.114 -11127602.168 -16260318.415 10 0 60982 41400.00000 0 17994608.255 -11673727.251 -13828479.002 10 0 60982 42300.00000 0 19427104.134 -12254404.079 -11128423.230 10 0 60982 43200.00000 0 20491034.591 -12813934.143 -8212567.404 10 0 60982 44100.00000 0 21176950.602 -13294839.853 -5137485.231 10 0 60982 45000.00000 0 21488612.411 -13640454.599 -1962812.969 10 0 60982 45900.00000 0 21442652.061 -13797490.922 1249903.151 10 0 60982 46800.00000 0 21067713.649 -13718478.686 4438395.161 10 0 60982 47700.00000 0 20403108.289 -13363970.591 7540874.409 10 0 60982 48600.00000 0 19497040.894 -12704422.128 10497222.509 10 0 60982 49500.00000 0 18404483.521 -11721666.640 13250149.512 10 0 60982 50400.00000 0 17184784.605 -10409923.043 15746297.316 10 0 60982 51300.00000 0 15899114.179 -8776293.115 17937267.532 10 0 60982 52200.00000 0 14607851.842 -6840726.422 19780554.510 10 0 60982 53100.00000 0 13368026.429 -4635452.934 21240366.051 10 0 60982 54000.00000 0 12230914.110 -2203905.338 22288316.455 10 0 60982 54900.00000 0 11239894.974 400825.954 22903978.884 10 0 60982 55800.00000 0 10428657.492 3117942.731 23075286.472 10 0 60982 56700.00000 0 9819825.861 5881214.783 22798774.318 10 0 60982 57600.00000 0 9424067.776 8621488.833 22079657.185 10 0 60982 58500.00000 0 9239720.353 11269327.966 20931740.667 10 0 60982 59400.00000 0 9252950.406 13757673.102 19377166.515 10 0 60982 60300.00000 0 9438443.025 16024416.738 17445995.826 10 0 60982 61200.00000 0 9760590.188 18014782.174 15175636.971 10 0 60982 62100.00000 0 10175129.975 19683409.131 12610128.136 10 0 60982 63000.00000 0 10631167.641 20996058.368 9799287.459 10 0 60982 63900.00000 0 11073493.299 21930863.548 6797746.650 10 0 60982 64800.00000 0 11445097.889 22479077.368 3663886.681 10 0 60982 65700.00000 0 11689780.250 22645280.257 458696.443 10 0 60982 66600.00000 0 11754733.768 22447042.669 -2755422.699 10 0 60982 67500.00000 0 11593001.641 21914055.365 -5915882.194 10 0 60982 68400.00000 0 11165695.159 21086764.831 -8961136.336 10 0 60982 69300.00000 0 10443879.464 20014572.239 -11831891.717 10 0 60982 70200.00000 0 9410045.470 18753672.991 -14472271.298 10 0 60982 71100.00000 0 8059104.382 17364629.219 -16830909.383 10 0 60982 72000.00000 0 6398861.786 15909778.782 -18861955.404 10 0 60982 72900.00000 0 4449950.525 14450590.967 -20525966.642 10 0 60982 73800.00000 0 2245224.624 13045080.938 -21790672.567 10 0 60982 74700.00000 0 -171360.629 11745391.991 -22631596.312 10 0 60982 75600.00000 0 -2746335.760 10595647.089 -23032521.915 10 0 60982 76500.00000 0 -5418705.242 9630159.251 -22985799.173 10 0 60982 77400.00000 0 -8122253.857 8872074.900 -22492481.105 10 0 60982 78300.00000 0 -10788075.567 8332505.709 -21562292.362 10 0 60982 79200.00000 0 -13347220.102 8010183.829 -20213430.013 10 0 60982 80100.00000 0 -15733347.786 7891653.314 -18472201.239 10 0 60982 81000.00000 0 -17885283.037 7951988.144 -16372505.459 10 0 60982 81900.00000 0 -19749361.350 8156005.251 -13955171.185 10 0 60982 82800.00000 0 -21281473.185 8459920.358 -11267160.605 10 0 60982 83700.00000 0 -22448720.864 8813376.057 -8360657.288 10 0 60982 84600.00000 0 -23230620.718 9161756.084 -5292054.599 10 0 60982 85500.00000 0 -23619801.526 9448687.892 -2120864.288 99